User: anonymous   Login
Location: Banios
(43.0451°N, 0.2335°E)
Time: 05:16:10
(UTC+00:00)
Language:

Envisat - Orbit

View from above orbital plane
View from above orbital plane
View from above satellite
View from above satellite

Ground track
Ground track

The orbit data is extracted from the following two-line orbital elements,

1 27386U 02009A   21101.91929465  .00000015  00000-0  18555-4 0  9991
2 27386  98.1477  99.3795 0001382  88.3304 285.1529 14.38020427  1448
Epoch (UTC): 11 April 2021 22:03:47
Eccentricity: 0.0001382
inclination: 98.1477°
perigee height: 764 km
apogee height: 766 km
right ascension of ascending node: 99.3795°
argument of perigee: 88.3304°
revolutions per day: 14.38020427
mean anomaly at epoch: 285.1529°
orbit number at epoch: 144

The dashed part of the orbit path shows where the satellite is in the earth's shadow,  

DLR